Regional Weather Roundup
Issued by NWS Charleston, WV

Home | Current Version | Previous Version | Graphics & Text | Print | Product List | Glossary On
Versions: 1 2 3 4 5 6 7 8 9 10 11 12 13 14 15 16 17 18 19 20 21 22 23 24 25 26 27 28 29 30 31 32 33 34 35 36 37 38 39 40 41 42 43 44 45 46 47 48 49 50
000
ASUS41 KRLX 171610
RWRRLX
West Virginia Regional Weather Roundup
National Weather Service Charleston WV
1200 PM EDT WED SEP 17 2014

Note: "fair" indicates few or no clouds below 12,000 feet with no
significant weather and/or obstructions to visibility.

WVZ003-171700-
Northern Panhandle of West Virginia

CITY           SKY/WX    TMP DP  RH WIND       PRES   REMARKS
WHEELING       MOSUNNY   62  51  67 SE3       30.04F
$$

WVZ009-171700-
Northwest West Virginia

CITY           SKY/WX    TMP DP  RH WIND       PRES   REMARKS
PARKERSBURG    MOSUNNY   67  54  63 SE5       30.06F
$$

WVZ006-171700-
Western West Virginia

CITY           SKY/WX    TMP DP  RH WIND       PRES   REMARKS
HUNTINGTON     MOSUNNY   64  55  72 CALM      30.02F
$$

WVZ015-171700-
West Central West Virginia

CITY           SKY/WX    TMP DP  RH WIND       PRES   REMARKS
CHARLESTON     CLOUDY    60  56  86 VRB7      30.03F
$$

WVZ031-171700-
North Central West Virginia

CITY           SKY/WX    TMP DP  RH WIND       PRES   REMARKS
CLARKSBURG     SUNNY     65  53  65 CALM      30.05F
MORGANTOWN     SUNNY     67  48  50 CALM      30.06F
$$

WVZ035-042-045-171700-
South Central West Virginia

CITY           SKY/WX    TMP DP  RH WIND       PRES   REMARKS
BECKLEY        PTSUNNY   64  53  67 S10       30.05F
BLUEFIELD      PTSUNNY   63  52  67 VRB7      30.06F
LEWISBURG      CLOUDY    67  52  59 CALM      30.06F
$$

WVZ047-171700-
Northern Mountains of West Virginia

CITY           SKY/WX    TMP DP  RH WIND       PRES   REMARKS
ELKINS         MOSUNNY   64  51  62 VRB5      30.06F
$$

WVZ052-171700-
Eastern Panhandle of West Virginia

CITY           SKY/WX    TMP DP  RH WIND       PRES   REMARKS
MARTINSBURG    SUNNY     69  50  50 NW3       30.06F
PETERSBURG     PTSUNNY   67  48  50 E3        30.06F
$$


USA.gov is the U.S. government's official web portal to all federal, state and local government web resources and services.